Torna al catalogo

CZ-6A DEB

AttivoPO
NORAD 54591·DEBRIS·🇨🇳 China

Lanciato Nov 11, 2022 da Taiyuan Satellite Launch Center

Loading…

Prossimi Passaggi (prossime 24 ore)

TLE

AggiornatoSource: Space-Track

Epoca: Sep 12, 2026, 18:16 UTC

1 54591U 22151MR  26255.76117884  .00014221  00000-0  13461-2 0  9994
2 54591  98.7165   2.5442 0075975 329.1056  30.5700 14.91577990129603

Traccia CZ-6A DEB in tempo reale con AllMySat

Download on the App Store